| time (UTC) | temp F | wind direction | speed MPH | gust MPH | rain 1hr in | rain 24hr in | rain mn in | humidity % | barometer mb |
| 20260502232504 | 56 | 99 | 0.0 | 2.0 | 0.00 | 0.00 | 0.00 | 54 | 1022.1 |
| 20260502232005 | 56 | 116 | 1.0 | 1.0 | 0.00 | 0.00 | 0.00 | 54 | 1022.0 |
| 20260502231503 | 57 | 117 | 0.0 | 0.0 | 0.00 | 0.00 | 0.00 | 54 | 1021.9 |
| 20260502231002 | 57 | 91 | 0.0 | 1.0 | 0.00 | 0.00 | 0.00 | 54 | 1022.3 |
| 20260502230506 | 57 | 93 | 0.0 | 2.0 | 0.00 | 0.00 | 0.00 | 55 | 1022.3 |
| 20260502230003 | 56 | 118 | 1.0 | 1.0 | 0.00 | 0.00 | 0.00 | 57 | 1022.3 |
| 20260502225503 | 54 | 97 | 0.0 | 1.0 | 0.00 | 0.00 | 0.00 | 59 | 1022.3 |
| 20260502225003 | 52 | 187 | 2.0 | 2.0 | 0.00 | 0.00 | 0.00 | 64 | 1022.3 |
| 20260502224502 | 52 | 54 | 0.0 | 0.0 | 0.00 | 0.00 | 0.00 | 64 | 1022.6 |
| 20260502224003 | 53 | 59 | 0.0 | 0.0 | 0.00 | 0.00 | 0.00 | 64 | 1022.4 |
| 20260502223503 | 52 | 93 | 0.0 | 1.0 | 0.00 | 0.00 | 0.00 | 65 | 1022.5 |
| 20260502223003 | 49 | 127 | 2.0 | 2.0 | 0.00 | 0.00 | 0.00 | 69 | 1022.6 |
| 20260502222503 | 48 | 4 | 1.0 | 1.0 | 0.00 | 0.00 | 0.00 | 78 | 1022.5 |
| 20260502222003 | 47 | 68 | 0.0 | 0.0 | 0.00 | 0.00 | 0.00 | 78 | 1022.6 |
| 20260502221502 | 48 | 68 | 0.0 | 0.0 | 0.00 | 0.00 | 0.00 | 77 | 1022.5 |
| 20260502221003 | 48 | 68 | 0.0 | 0.0 | 0.00 | 0.00 | 0.00 | 76 | 1022.3 |
| 20260502220502 | 48 | 68 | 0.0 | 0.0 | 0.00 | 0.00 | 0.00 | 77 | 1022.4 |
| 20260502220005 | 48 | 68 | 0.0 | 0.0 | 0.00 | 0.00 | 0.00 | 76 | 1022.4 |
| 20260502215503 | 49 | 68 | 0.0 | 0.0 | 0.00 | 0.00 | 0.00 | 76 | 1022.4 |
| 20260502215003 | 49 | 68 | 0.0 | 0.0 | 0.00 | 0.00 | 0.00 | 74 | 1022.5 |
| 20260502214504 | 50 | 68 | 0.0 | 0.0 | 0.00 | 0.00 | 0.00 | 73 | 1022.4 |
| 20260502214003 | 50 | 68 | 0.0 | 0.0 | 0.00 | 0.00 | 0.00 | 72 | 1022.4 |
| 20260502213502 | 51 | 68 | 0.0 | 0.0 | 0.00 | 0.00 | 0.00 | 71 | 1022.4 |
| 20260502213004 | 51 | 68 | 0.0 | 0.0 | 0.00 | 0.00 | 0.00 | 71 | 1022.4 |
| 20260502212502 | 51 | 68 | 0.0 | 0.0 | 0.00 | 0.00 | 0.00 | 71 | 1022.2 |
| 20260502212004 | 51 | 68 | 0.0 | 0.0 | 0.00 | 0.00 | 0.00 | 69 | 1022.3 |
| 20260502211505 | 51 | 69 | 0.0 | 0.0 | 0.00 | 0.00 | 0.00 | 69 | 1022.4 |
| 20260502211003 | 51 | 69 | 0.0 | 0.0 | 0.00 | 0.00 | 0.00 | 67 | 1022.6 |
| 20260502210504 | 52 | 69 | 0.0 | 0.0 | 0.00 | 0.00 | 0.00 | 65 | 1022.7 |
| 20260502210002 | 53 | 69 | 0.0 | 0.0 | 0.00 | 0.00 | 0.00 | 65 | 1022.5 |
| 20260502205503 | 53 | 69 | 0.0 | 0.0 | 0.00 | 0.00 | 0.00 | 64 | 1022.6 |
| 20260502205003 | 53 | 69 | 0.0 | 1.0 | 0.00 | 0.00 | 0.00 | 63 | 1022.6 |
| 20260502204502 | 53 | 140 | 0.0 | 0.0 | 0.00 | 0.00 | 0.00 | 63 | 1022.8 |
| 20260502204004 | 53 | 140 | 0.0 | 0.0 | 0.00 | 0.00 | 0.00 | 62 | 1022.7 |
| 20260502203503 | 54 | 140 | 0.0 | 0.0 | 0.00 | 0.00 | 0.00 | 61 | 1022.8 |
| 20260502203004 | 54 | 140 | 0.0 | 0.0 | 0.00 | 0.00 | 0.00 | 61 | 1022.7 |
| 20260502202502 | 55 | 140 | 0.0 | 0.0 | 0.00 | 0.00 | 0.00 | 60 | 1022.7 |
| 20260502202002 | 55 | 140 | 0.0 | 0.0 | 0.00 | 0.00 | 0.00 | 58 | 1022.7 |
| 20260502201505 | 56 | 140 | 0.0 | 0.0 | 0.00 | 0.00 | 0.00 | 57 | 1022.9 |
| 20260502201004 | 57 | 140 | 0.0 | 0.0 | 0.00 | 0.00 | 0.00 | 56 | 1022.7 |
| 20260502200503 | 57 | 140 | 0.0 | 0.0 | 0.00 | 0.00 | 0.00 | 54 | 1022.8 |
| 20260502200005 | 57 | 139 | 0.0 | 0.0 | 0.00 | 0.00 | 0.00 | 55 | 1022.7 |
| 20260502195506 | 56 | 139 | 0.0 | 0.0 | 0.00 | 0.00 | 0.00 | 56 | 1022.8 |
| 20260502195003 | 56 | 139 | 0.0 | 0.0 | 0.00 | 0.00 | 0.00 | 56 | 1022.9 |
| 20260502194503 | 56 | 139 | 0.0 | 0.0 | 0.00 | 0.00 | 0.00 | 57 | 1022.9 |
| 20260502194003 | 55 | 138 | 0.0 | 0.0 | 0.00 | 0.00 | 0.00 | 58 | 1023.0 |
| 20260502193504 | 54 | 139 | 1.0 | 2.0 | 0.00 | 0.00 | 0.00 | 57 | 1022.9 |
| 20260502193002 | 55 | 136 | 0.0 | 0.0 | 0.00 | 0.00 | 0.00 | 59 | 1023.0 |
| 20260502192503 | 55 | 136 | 0.0 | 0.0 | 0.00 | 0.00 | 0.00 | 58 | 1023.0 |
| 20260502192003 | 55 | 136 | 0.0 | 0.0 | 0.00 | 0.00 | 0.00 | 57 | 1023.0 |
| 20260502191504 | 56 | 136 | 0.0 | 0.0 | 0.00 | 0.00 | 0.00 | 56 | 1023.2 |
| 20260502191003 | 56 | 136 | 0.0 | 0.0 | 0.00 | 0.00 | 0.00 | 56 | 1023.0 |
| 20260502190503 | 57 | 136 | 0.0 | 0.0 | 0.00 | 0.00 | 0.00 | 54 | 1022.9 |
| 20260502190005 | 58 | 136 | 0.0 | 0.0 | 0.00 | 0.00 | 0.00 | 52 | 1022.8 |
| 20260502185506 | 59 | 136 | 0.0 | 0.0 | 0.00 | 0.00 | 0.00 | 50 | 1022.8 |
| 20260502185002 | 59 | 136 | 0.0 | 0.0 | 0.00 | 0.00 | 0.00 | 49 | 1023.0 |
| 20260502184502 | 60 | 136 | 0.0 | 0.0 | 0.00 | 0.00 | 0.00 | 47 | 1023.0 |
| 20260502184003 | 62 | 136 | 0.0 | 0.0 | 0.00 | 0.00 | 0.00 | 46 | 1022.9 |
| 20260502183503 | 63 | 136 | 0.0 | 0.0 | 0.00 | 0.00 | 0.00 | 43 | 1022.8 |
| 20260502183002 | 65 | 136 | 0.0 | 0.0 | 0.00 | 0.00 | 0.00 | 40 | 1022.6 |
| 20260502182503 | 67 | 136 | 0.0 | 0.0 | 0.00 | 0.00 | 0.00 | 38 | 1022.8 |
| 20260502182002 | 68 | 136 | 0.0 | 1.0 | 0.00 | 0.00 | 0.00 | 36 | 1022.8 |
| 20260502181504 | 68 | 138 | 0.0 | 2.0 | 0.00 | 0.00 | 0.00 | 34 | 1022.6 |
| 20260502181003 | 69 | 98 | 0.0 | 0.0 | 0.00 | 0.00 | 0.00 | 33 | 1022.5 |
| 20260502180503 | 70 | 142 | 0.0 | 0.0 | 0.00 | 0.00 | 0.00 | 32 | 1022.6 |
| 20260502170503 | 74 | 143 | 1.0 | 5.0 | 0.00 | 0.00 | 0.00 | 28 | 1023.1 |
| 20260502164002 | 76 | 168 | 2.0 | 5.0 | 0.00 | 0.00 | 0.00 | 26 | 1023.3 |
| 20260502163504 | 76 | 104 | 1.0 | 3.0 | 0.00 | 0.00 | 0.00 | 27 | 1023.3 |
| 20260502163004 | 77 | 164 | 2.0 | 6.0 | 0.00 | 0.00 | 0.00 | 27 | 1023.4 |
| 20260502162503 | 76 | 134 | 2.0 | 6.0 | 0.00 | 0.00 | 0.00 | 28 | 1023.5 |
| 20260502162003 | 76 | 170 | 3.0 | 6.0 | 0.00 | 0.00 | 0.00 | 28 | 1023.7 |
| 20260502161502 | 76 | 161 | 1.0 | 6.0 | 0.00 | 0.00 | 0.00 | 28 | 1023.6 |
| 20260502161005 | 76 | 169 | 1.0 | 5.0 | 0.00 | 0.00 | 0.00 | 27 | 1023.7 |
| 20260502160503 | 77 | 141 | 4.0 | 7.0 | 0.00 | 0.00 | 0.00 | 27 | 1023.8 |
| 20260502152003 | 78 | 203 | 3.0 | 5.0 | 0.00 | 0.00 | 0.00 | 27 | 1024.2 |
| 20260502151504 | 78 | 155 | 1.0 | 6.0 | 0.00 | 0.00 | 0.00 | 26 | 1024.4 |
| 20260502151002 | 78 | 134 | 6.0 | 8.0 | 0.00 | 0.00 | 0.00 | 25 | 1024.3 |
| 20260502150504 | 78 | 214 | 2.0 | 3.0 | 0.00 | 0.00 | 0.00 | 26 | 1024.4 |
| 20260502130502 | 78 | 222 | 4.0 | 7.0 | 0.00 | 0.00 | 0.00 | 26 | 1026.0 |
| 20260502123502 | 79 | 336 | 1.0 | 2.0 | 0.00 | 0.00 | 0.00 | 26 | 1026.2 |
| 20260502123002 | 78 | 184 | 3.0 | 3.0 | 0.00 | 0.00 | 0.00 | 26 | 1026.3 |
| 20260502122503 | 77 | 89 | 1.0 | 5.0 | 0.00 | 0.00 | 0.00 | 27 | 1026.3 |
| 20260502122003 | 77 | 30 | 1.0 | 1.0 | 0.00 | 0.00 | 0.00 | 26 | 1026.3 |
| 20260502121503 | 76 | 181 | 3.0 | 3.0 | 0.00 | 0.00 | 0.00 | 26 | 1026.4 |
| 20260502121004 | 76 | 180 | 5.0 | 6.0 | 0.00 | 0.00 | 0.00 | 27 | 1026.4 |
| 20260502120502 | 77 | 177 | 2.0 | 6.0 | 0.00 | 0.00 | 0.00 | 28 | 1026.7 |
| 20260502115505 | 76 | 50 | 1.0 | 2.0 | 0.00 | 0.00 | 0.00 | 27 | 1026.8 |
| 20260502115003 | 76 | 170 | 4.0 | 5.0 | 0.00 | 0.00 | 0.00 | 28 | 1026.8 |
| 20260502114504 | 77 | 275 | 3.0 | 5.0 | 0.00 | 0.00 | 0.00 | 27 | 1026.8 |
| 20260502114002 | 77 | 104 | 2.0 | 2.0 | 0.00 | 0.00 | 0.00 | 28 | 1026.8 |
| 20260502113504 | 77 | 188 | 2.0 | 3.0 | 0.00 | 0.00 | 0.00 | 29 | 1027.0 |
| 20260502113003 | 77 | 187 | 1.0 | 5.0 | 0.00 | 0.00 | 0.00 | 28 | 1026.9 |
| 20260502112503 | 77 | 171 | 2.0 | 3.0 | 0.00 | 0.00 | 0.00 | 28 | 1027.2 |
| 20260502112002 | 76 | 13 | 3.0 | 5.0 | 0.00 | 0.00 | 0.00 | 29 | 1027.3 |
| 20260502111502 | 77 | 82 | 0.0 | 2.0 | 0.00 | 0.00 | 0.00 | 29 | 1027.2 |
| 20260502111003 | 76 | 30 | 1.0 | 3.0 | 0.00 | 0.00 | 0.00 | 28 | 1027.3 |
| 20260502110503 | 75 | 60 | 5.0 | 6.0 | 0.00 | 0.00 | 0.00 | 28 | 1027.4 |
| 20260502110005 | 75 | 42 | 3.0 | 5.0 | 0.00 | 0.00 | 0.00 | 28 | 1027.3 |
| 20260502105503 | 75 | 165 | 2.0 | 3.0 | 0.00 | 0.00 | 0.00 | 29 | 1027.4 |
| 20260502105002 | 76 | 199 | 3.0 | 7.0 | 0.00 | 0.00 | 0.00 | 29 | 1027.3 |
| 20260502104503 | 77 | 183 | 4.0 | 7.0 | 0.00 | 0.00 | 0.00 | 28 | 1027.5 |
| 20260502104002 | 75 | 45 | 1.0 | 2.0 | 0.00 | 0.00 | 0.00 | 29 | 1027.6 |
| 20260502103505 | 75 | 92 | 2.0 | 6.0 | 0.00 | 0.00 | 0.00 | 29 | 1027.7 |
| 20260502103003 | 75 | 205 | 1.0 | 2.0 | 0.00 | 0.00 | 0.00 | 29 | 1027.5 |
| 20260502102502 | 75 | 347 | 1.0 | 3.0 | 0.00 | 0.00 | 0.00 | 31 | 1027.5 |
| 20260502102003 | 76 | 92 | 0.0 | 5.0 | 0.00 | 0.00 | 0.00 | 29 | 1027.9 |
| 20260502101504 | 75 | 106 | 2.0 | 2.0 | 0.00 | 0.00 | 0.00 | 31 | 1027.9 |
| 20260502101004 | 76 | 30 | 1.0 | 1.0 | 0.00 | 0.00 | 0.00 | 29 | 1027.9 |
| 20260502100502 | 75 | 45 | 1.0 | 7.0 | 0.00 | 0.00 | 0.00 | 28 | 1028.0 |
| 20260502091504 | 73 | 191 | 1.0 | 3.0 | 0.00 | 0.00 | 0.00 | 32 | 1028.6 |
| 20260502091006 | 74 | 185 | 1.0 | 3.0 | 0.00 | 0.00 | 0.00 | 33 | 1028.7 |
| 20260502090502 | 73 | 197 | 1.0 | 2.0 | 0.00 | 0.00 | 0.00 | 32 | 1028.6 |
| 20260502071503 | 66 | 157 | 0.0 | 1.0 | 0.00 | 0.00 | 0.00 | 48 | 1029.0 |
| 20260502071003 | 66 | 160 | 2.0 | 3.0 | 0.00 | 0.00 | 0.00 | 46 | 1029.1 |
| 20260502070504 | 66 | 142 | 0.0 | 0.0 | 0.00 | 0.00 | 0.00 | 48 | 1029.1 |
| 20260502070003 | 65 | 50 | 0.0 | 1.0 | 0.00 | 0.00 | 0.00 | 49 | 1029.2 |
| 20260502065502 | 64 | 113 | 1.0 | 1.0 | 0.00 | 0.00 | 0.00 | 51 | 1029.1 |
| 20260502065004 | 63 | 156 | 1.0 | 1.0 | 0.00 | 0.00 | 0.00 | 50 | 1029.0 |
| 20260502064503 | 63 | 125 | 0.0 | 1.0 | 0.00 | 0.00 | 0.00 | 52 | 1029.1 |
| 20260502064003 | 62 | 144 | 1.0 | 2.0 | 0.00 | 0.00 | 0.00 | 53 | 1029.2 |
| 20260502063505 | 61 | 130 | 0.0 | 0.0 | 0.00 | 0.00 | 0.00 | 55 | 1029.2 |
| 20260502063003 | 61 | 131 | 1.0 | 2.0 | 0.00 | 0.00 | 0.00 | 55 | 1029.2 |
| 20260502062505 | 62 | 105 | 0.0 | 1.0 | 0.00 | 0.00 | 0.00 | 57 | 1029.1 |
| 20260502062003 | 62 | 67 | 1.0 | 1.0 | 0.00 | 0.00 | 0.00 | 56 | 1029.2 |
| 20260502061504 | 60 | 56 | 1.0 | 1.0 | 0.00 | 0.00 | 0.00 | 58 | 1029.2 |
| 20260502061002 | 59 | 117 | 0.0 | 1.0 | 0.00 | 0.00 | 0.00 | 62 | 1029.1 |
| 20260502060503 | 58 | 116 | 0.0 | 2.0 | 0.00 | 0.00 | 0.00 | 63 | 1029.1 |
| 20260502060004 | 58 | 115 | 0.0 | 1.0 | 0.00 | 0.00 | 0.00 | 62 | 1029.3 |
| 20260502055505 | 58 | 98 | 1.0 | 1.0 | 0.00 | 0.00 | 0.00 | 61 | 1029.2 |
| 20260502055003 | 58 | 89 | 0.0 | 1.0 | 0.00 | 0.00 | 0.00 | 60 | 1029.3 |
| 20260502054502 | 58 | 13 | 0.0 | 0.0 | 0.00 | 0.00 | 0.00 | 61 | 1028.9 |
| 20260502054002 | 57 | 13 | 0.0 | 0.0 | 0.00 | 0.00 | 0.00 | 64 | 1029.1 |
| 20260502053503 | 56 | 13 | 0.0 | 0.0 | 0.00 | 0.00 | 0.00 | 63 | 1029.1 |
| 20260502053003 | 55 | 13 | 0.0 | 0.0 | 0.00 | 0.00 | 0.00 | 71 | 1029.2 |
| 20260502052503 | 54 | 13 | 0.0 | 0.0 | 0.00 | 0.00 | 0.00 | 74 | 1029.2 |
| 20260502052002 | 53 | 12 | 0.0 | 0.0 | 0.00 | 0.00 | 0.00 | 84 | 1029.1 |
| 20260502051502 | 51 | 12 | 0.0 | 0.0 | 0.00 | 0.00 | 0.00 | 89 | 1029.4 |
| 20260502051003 | 50 | 12 | 0.0 | 0.0 | 0.00 | 0.00 | 0.00 | 95 | 1029.0 |
| 20260502050504 | 48 | 12 | 0.0 | 0.0 | 0.00 | 0.00 | 0.00 | 97 | 1029.3 |
| 20260502050005 | 47 | 12 | 0.0 | 0.0 | 0.00 | 0.00 | 0.00 | 97 | 1029.1 |
| 20260502045503 | 47 | 12 | 0.0 | 0.0 | 0.00 | 0.00 | 0.00 | 97 | 1029.1 |
| 20260502045003 | 46 | 12 | 0.0 | 0.0 | 0.00 | 0.00 | 0.00 | 97 | 1029.1 |
| 20260502044504 | 45 | 12 | 0.0 | 0.0 | 0.00 | 0.00 | 0.00 | 97 | 1029.0 |
| 20260502044002 | 44 | 11 | 0.0 | 0.0 | 0.00 | 0.00 | 0.00 | 97 | 1029.2 |
| 20260502043502 | 42 | 11 | 0.0 | 0.0 | 0.00 | 0.00 | 0.00 | 97 | 1028.9 |
| 20260502043003 | 41 | 11 | 0.0 | 0.0 | 0.00 | 0.00 | 0.00 | 97 | 1028.9 |
| 20260502042503 | 40 | 11 | 0.0 | 0.0 | 0.00 | 0.00 | 0.00 | 97 | 1029.1 |
| 20260502042003 | 39 | 10 | 0.0 | 0.0 | 0.00 | 0.00 | 0.00 | 97 | 1028.9 |
| 20260502041502 | 39 | 10 | 0.0 | 0.0 | 0.00 | 0.00 | 0.00 | 97 | 1029.0 |
| 20260502041002 | 38 | 10 | 0.0 | 0.0 | 0.00 | 0.00 | 0.00 | 96 | 1028.9 |
| 20260502040503 | 38 | 10 | 0.0 | 0.0 | 0.00 | 0.00 | 0.00 | 97 | 1029.0 |
| 20260502040003 | 38 | 10 | 0.0 | 0.0 | 0.00 | 0.00 | 0.00 | 96 | 1028.9 |
| 20260502035503 | 38 | 10 | 0.0 | 0.0 | 0.00 | 0.00 | 0.00 | 96 | 1028.9 |
| 20260502035002 | 38 | 10 | 0.0 | 0.0 | 0.00 | 0.00 | 0.00 | 96 | 1029.2 |
| 20260502034504 | 37 | 10 | 0.0 | 0.0 | 0.00 | 0.00 | 0.00 | 96 | 1029.1 |
| 20260502034003 | 37 | 10 | 0.0 | 0.0 | 0.00 | 0.00 | 0.00 | 96 | 1029.2 |
| 20260502033503 | 37 | 10 | 0.0 | 0.0 | 0.00 | 0.00 | 0.00 | 96 | 1029.2 |
| 20260502033002 | 37 | 10 | 0.0 | 0.0 | 0.00 | 0.00 | 0.00 | 96 | 1029.0 |
| 20260502032503 | 37 | 10 | 0.0 | 0.0 | 0.00 | 0.00 | 0.00 | 96 | 1029.0 |
| 20260502032003 | 38 | 10 | 0.0 | 0.0 | 0.00 | 0.00 | 0.00 | 96 | 1029.0 |
| 20260502031504 | 37 | 10 | 0.0 | 0.0 | 0.00 | 0.00 | 0.00 | 96 | 1029.0 |
| 20260502031004 | 38 | 10 | 0.0 | 0.0 | 0.00 | 0.00 | 0.00 | 96 | 1028.9 |
| 20260502030504 | 38 | 10 | 0.0 | 0.0 | 0.00 | 0.00 | 0.00 | 96 | 1028.9 |
| 20260502030005 | 38 | 10 | 0.0 | 0.0 | 0.00 | 0.00 | 0.00 | 96 | 1028.9 |
| 20260502025502 | 38 | 10 | 0.0 | 0.0 | 0.00 | 0.00 | 0.00 | 96 | 1029.2 |
| 20260502025003 | 38 | 10 | 0.0 | 0.0 | 0.00 | 0.00 | 0.00 | 96 | 1029.0 |
| 20260502024503 | 38 | 10 | 0.0 | 0.0 | 0.00 | 0.00 | 0.00 | 96 | 1029.1 |
| 20260502024004 | 38 | 10 | 0.0 | 0.0 | 0.00 | 0.00 | 0.00 | 96 | 1029.1 |
| 20260502023503 | 38 | 10 | 0.0 | 0.0 | 0.00 | 0.00 | 0.00 | 96 | 1029.0 |
| 20260502023002 | 38 | 10 | 0.0 | 0.0 | 0.00 | 0.00 | 0.00 | 96 | 1028.9 |
| 20260502022503 | 38 | 10 | 0.0 | 0.0 | 0.00 | 0.00 | 0.00 | 96 | 1029.1 |
| 20260502022003 | 39 | 10 | 0.0 | 0.0 | 0.00 | 0.00 | 0.00 | 96 | 1028.9 |
| 20260502021503 | 39 | 10 | 0.0 | 0.0 | 0.00 | 0.00 | 0.00 | 96 | 1029.1 |
| 20260502021003 | 39 | 10 | 0.0 | 0.0 | 0.00 | 0.00 | 0.00 | 96 | 1029.1 |
| 20260502020505 | 39 | 10 | 0.0 | 0.0 | 0.00 | 0.00 | 0.00 | 95 | 1029.2 |
| 20260502020004 | 39 | 10 | 0.0 | 0.0 | 0.00 | 0.00 | 0.00 | 95 | 1029.0 |
| 20260502015503 | 39 | 10 | 0.0 | 0.0 | 0.00 | 0.00 | 0.00 | 95 | 1029.1 |
| 20260502015003 | 39 | 10 | 0.0 | 0.0 | 0.00 | 0.00 | 0.00 | 95 | 1029.1 |
| 20260502014503 | 39 | 10 | 0.0 | 0.0 | 0.00 | 0.00 | 0.00 | 95 | 1029.1 |
| 20260502014002 | 39 | 10 | 0.0 | 0.0 | 0.00 | 0.00 | 0.00 | 96 | 1029.1 |
| 20260502013504 | 39 | 10 | 0.0 | 0.0 | 0.00 | 0.00 | 0.00 | 95 | 1029.1 |
| 20260502013004 | 39 | 10 | 0.0 | 0.0 | 0.00 | 0.00 | 0.00 | 95 | 1029.0 |
| 20260502012503 | 40 | 10 | 0.0 | 0.0 | 0.00 | 0.00 | 0.00 | 95 | 1029.1 |
| 20260502012003 | 40 | 10 | 0.0 | 0.0 | 0.00 | 0.00 | 0.00 | 95 | 1029.0 |
| 20260502011503 | 40 | 10 | 0.0 | 0.0 | 0.00 | 0.00 | 0.00 | 95 | 1029.0 |
| 20260502011003 | 40 | 10 | 0.0 | 0.0 | 0.00 | 0.00 | 0.00 | 95 | 1029.0 |
| 20260502010504 | 40 | 10 | 0.0 | 0.0 | 0.00 | 0.00 | 0.00 | 95 | 1028.9 |
| 20260502010002 | 40 | 10 | 0.0 | 0.0 | 0.00 | 0.00 | 0.00 | 95 | 1029.2 |
| 20260502005503 | 39 | 10 | 0.0 | 0.0 | 0.00 | 0.00 | 0.00 | 95 | 1029.2 |
| 20260502005003 | 39 | 10 | 0.0 | 0.0 | 0.00 | 0.00 | 0.00 | 94 | 1029.0 |
| 20260502004502 | 39 | 10 | 0.0 | 0.0 | 0.00 | 0.00 | 0.00 | 94 | 1029.1 |
| 20260502004003 | 40 | 10 | 0.0 | 0.0 | 0.00 | 0.00 | 0.00 | 94 | 1029.2 |
| 20260502003502 | 40 | 10 | 0.0 | 0.0 | 0.00 | 0.00 | 0.00 | 94 | 1029.2 |
| 20260502003002 | 40 | 10 | 0.0 | 0.0 | 0.00 | 0.00 | 0.00 | 94 | 1029.2 |
| 20260502002503 | 40 | 10 | 0.0 | 0.0 | 0.00 | 0.00 | 0.00 | 94 | 1029.3 |
| 20260502002008 | 41 | 10 | 0.0 | 0.0 | 0.00 | 0.00 | 0.00 | 94 | 1029.1 |
| 20260502001502 | 40 | 10 | 0.0 | 0.0 | 0.00 | 0.00 | 0.00 | 94 | 1029.2 |
| 20260502001005 | 40 | 10 | 0.0 | 0.0 | 0.00 | 0.00 | 0.00 | 94 | 1029.1 |
| 20260502000503 | 40 | 10 | 0.0 | 0.0 | 0.00 | 0.00 | 0.00 | 93 | 1029.3 |
| 20260502000003 | 41 | 10 | 0.0 | 0.0 | 0.00 | 0.00 | 0.00 | 93 | 1029.4 |
| 20260501235503 | 41 | 10 | 0.0 | 0.0 | 0.00 | 0.00 | 0.00 | 93 | 1029.4 |
| 20260501235003 | 41 | 10 | 0.0 | 0.0 | 0.00 | 0.00 | 0.00 | 93 | 1029.5 |
| 20260501234504 | 41 | 10 | 0.0 | 0.0 | 0.00 | 0.00 | 0.00 | 93 | 1029.5 |
| 20260501234005 | 41 | 10 | 0.0 | 0.0 | 0.00 | 0.00 | 0.00 | 93 | 1029.3 |
| 20260501233503 | 42 | 10 | 0.0 | 0.0 | 0.00 | 0.00 | 0.00 | 93 | 1029.3 |
| 20260501233002 | 42 | 10 | 0.0 | 0.0 | 0.00 | 0.00 | 0.00 | 93 | 1029.4 |